TimeCET,TemperatureF,Dew PointF,Humidity,Sea Level PressureIn,VisibilityMPH,Wind Direction,Wind SpeedMPH,Gust SpeedMPH,PrecipitationIn,Events,Conditions,WindDirDegrees,DateUTC
12:15 AM,50.0,48.2,94,29.80,5.0,South,9.2,-,N/A,Rain-Thunderstorm,Light Thunderstorms and Rain,170,2012-12-01 23:15:00
12:45 AM,50.0,48.2,94,29.80,5.0,SSE,8.1,-,N/A,Rain-Thunderstorm,Light Thunderstorms and Rain,150,2012-12-01 23:45:00
1:15 AM,48.2,46.4,93,29.77,5.0,ESE,6.9,-,N/A,Rain-Thunderstorm,Light Thunderstorms and Rain,110,2012-12-02 00:15:00
1:45 AM,48.2,46.4,93,29.77,6.2,ENE,4.6,-,N/A,Rain-Thunderstorm,Light Thunderstorms and Rain,70,2012-12-02 00:45:00
2:15 AM,48.2,46.4,93,29.77,6.2,West,4.6,-,N/A,Rain-Thunderstorm,Light Thunderstorms and Rain,280,2012-12-02 01:15:00
2:45 AM,48.2,46.4,93,29.77,6.2,NW,5.8,-,N/A,Rain-Thunderstorm,Light Thunderstorms and Rain,320,2012-12-02 01:45:00
3:15 AM,48.2,46.4,93,29.77,6.2,North,2.3,-,N/A,Rain-Thunderstorm,Light Thunderstorms and Rain,10,2012-12-02 02:15:00
3:45 AM,48.2,46.4,93,29.77,5.0,NE,3.5,-,N/A,Rain-Thunderstorm,Light Thunderstorms and Rain,50,2012-12-02 02:45:00
4:15 AM,48.2,46.4,93,29.77,5.0,ESE,5.8,-,N/A,Rain-Thunderstorm,Light Thunderstorms and Rain,120,2012-12-02 03:15:00
4:45 AM,48.2,46.4,93,29.77,5.0,SE,5.8,-,N/A,Rain-Thunderstorm,Light Thunderstorms and Rain,140,2012-12-02 03:45:00
5:15 AM,48.2,46.4,93,29.74,5.0,East,3.5,-,N/A,Rain,Light Rain,80,2012-12-02 04:15:00
5:45 AM,48.2,46.4,93,29.74,6.2,Calm,Calm,-,N/A,Rain,Light Rain,0,2012-12-02 04:45:00
6:15 AM,48.2,46.4,93,29.74,6.2,SE,5.8,-,N/A,Rain,Light Rain,130,2012-12-02 05:15:00
6:45 AM,48.2,46.4,93,29.74,6.2,NE,2.3,-,N/A,,Scattered Clouds,50,2012-12-02 05:45:00
7:15 AM,48.2,44.6,87,29.74,6.2,ESE,1.2,-,N/A,,Scattered Clouds,120,2012-12-02 06:15:00
7:45 AM,46.4,44.6,93,29.74,6.2,ESE,2.3,-,N/A,Thunderstorm,Scattered Clouds,120,2012-12-02 06:45:00
8:15 AM,48.2,44.6,87,29.74,6.2,ESE,3.5,-,N/A,,Scattered Clouds,120,2012-12-02 07:15:00
8:45 AM,50.0,46.4,87,29.74,6.2,West,3.5,-,N/A,,Mostly Cloudy,280,2012-12-02 07:45:00
9:15 AM,48.2,46.4,93,29.74,6.2,WNW,2.3,-,N/A,,Mostly Cloudy,290,2012-12-02 08:15:00
9:45 AM,50.0,46.4,87,29.74,6.2,West,1.2,-,N/A,,Scattered Clouds,280,2012-12-02 08:45:00
10:15 AM,50.0,48.2,94,29.74,6.2,NNW,2.3,-,N/A,,Scattered Clouds,340,2012-12-02 09:15:00
10:45 AM,50.0,48.2,94,29.74,6.2,East,3.5,-,N/A,,Scattered Clouds,100,2012-12-02 09:45:00
11:15 AM,51.8,48.2,88,29.74,6.2,ENE,2.3,-,N/A,,Partly Cloudy,60,2012-12-02 10:15:00
11:45 AM,53.6,48.2,82,29.74,6.2,Calm,Calm,-,N/A,,Scattered Clouds,0,2012-12-02 10:45:00
12:15 PM,53.6,44.6,72,29.74,6.2,Calm,Calm,-,N/A,,Scattered Clouds,0,2012-12-02 11:15:00
12:45 PM,55.4,44.6,67,29.74,6.2,SW,2.3,-,N/A,,Scattered Clouds,230,2012-12-02 11:45:00
1:15 PM,55.4,44.6,67,29.71,6.2,South,3.5,-,N/A,,Scattered Clouds,190,2012-12-02 12:15:00
1:45 PM,55.4,46.4,72,29.71,6.2,SSW,5.8,-,N/A,,Scattered Clouds,200,2012-12-02 12:45:00
2:15 PM,55.4,44.6,67,29.71,6.2,WSW,4.6,-,N/A,,Scattered Clouds,240,2012-12-02 13:15:00
2:45 PM,55.4,46.4,72,29.71,6.2,SW,5.8,-,N/A,,Partly Cloudy,230,2012-12-02 13:45:00
3:15 PM,53.6,46.4,77,29.71,6.2,SSW,5.8,-,N/A,,Partly Cloudy,200,2012-12-02 14:15:00
3:45 PM,53.6,48.2,82,29.68,6.2,SSW,3.5,-,N/A,,Scattered Clouds,210,2012-12-02 14:45:00
4:15 PM,53.6,46.4,77,29.68,6.2,SW,3.5,-,N/A,,Partly Cloudy,220,2012-12-02 15:15:00
4:45 PM,51.8,46.4,82,29.71,6.2,SSW,1.2,-,N/A,,Scattered Clouds,210,2012-12-02 15:45:00
5:15 PM,50.0,46.4,87,29.71,6.2,SSE,2.3,-,N/A,,Scattered Clouds,160,2012-12-02 16:15:00
5:45 PM,48.2,44.6,87,29.71,6.2,ENE,6.9,-,N/A,,Scattered Clouds,70,2012-12-02 16:45:00
6:15 PM,48.2,44.6,87,29.71,6.2,East,2.3,-,N/A,,Scattered Clouds,100,2012-12-02 17:15:00
6:45 PM,48.2,42.8,82,29.68,6.2,ESE,2.3,-,N/A,,Scattered Clouds,110,2012-12-02 17:45:00
7:15 PM,46.4,42.8,87,29.68,6.2,SE,1.2,-,N/A,,Partly Cloudy,130,2012-12-02 18:15:00
7:45 PM,48.2,44.6,87,29.68,6.2,SSE,3.5,-,N/A,,Scattered Clouds,150,2012-12-02 18:45:00
8:15 PM,46.4,44.6,93,29.71,3.7,WSW,12.7,24.2,N/A,Rain-Thunderstorm,Light Thunderstorms and Rain,240,2012-12-02 19:15:00
8:45 PM,46.4,44.6,93,29.71,5.0,ESE,1.2,-,N/A,Rain-Thunderstorm,Light Thunderstorms and Rain,120,2012-12-02 19:45:00
9:15 PM,46.4,44.6,93,29.68,6.2,SE,6.9,-,N/A,Rain-Thunderstorm,Light Thunderstorms and Rain,130,2012-12-02 20:15:00
9:45 PM,46.4,44.6,93,29.68,6.2,North,2.3,-,N/A,,Scattered Clouds,10,2012-12-02 20:45:00
10:15 PM,46.4,44.6,93,29.68,6.2,North,11.5,26.5,N/A,,Mostly Cloudy,360,2012-12-02 21:15:00
10:45 PM,44.6,42.8,93,29.68,6.2,NNW,16.1,-,N/A,Rain-Thunderstorm,Light Thunderstorms and Rain,340,2012-12-02 21:45:00
11:15 PM,42.8,41.0,93,29.68,6.2,North,12.7,25.3,N/A,Rain-Thunderstorm,Light Thunderstorms and Rain,360,2012-12-02 22:15:00
11:45 PM,42.8,41.0,93,29.68,6.2,NE,8.1,-,N/A,Rain-Thunderstorm,Light Thunderstorms and Rain,40,2012-12-02 22:45:00